User: anonymous   Login
Location: Caltech
(34.1382°N, 118.1253°W)
Time: 06:08:57
(UTC-08:00)
Language:

Cosmos 676 Rocket - Orbit

View from above orbital plane
View from above orbital plane
View from above satellite
View from above satellite

Ground track
Ground track

The orbit data is extracted from the following two-line orbital elements,

1 07434U 74071B   15064.18059821  .00000326  00000-0  11989-3 0  9999
2 07434 074.0480 307.2603 0019759 063.1871 297.1300 14.36419112116801
Epoch (UTC): 05 March 2015 04:20:03
Eccentricity: 0.0019759
inclination: 74.0480°
perigee height: 756 km
apogee height: 784 km
right ascension of ascending node: 307.2603°
argument of perigee: 63.1871°
revolutions per day: 14.36419112
mean anomaly at epoch: 297.1300°
orbit number at epoch: 11680

The dashed part of the orbit path shows where the satellite is in the earth's shadow,  

DLR